{"data":{"norad_id":69429,"intl_designator":"2026-126K","name":"STARLINK-37857","alt_names":[],"object_type":"PAYLOAD","status":"ACTIVE","operator":null,"country":"US","launch_date":"2026-06-07","launch_site_code":"AFWTR","launch_vehicle":null,"mission":null,"orbit_class":"UNKNOWN","rcs_meters":null,"size_class":null,"mass_kg":null,"dimensions":null,"purposes":["comms"],"wikipedia_slug":null,"has_3d_model":false,"image_url":null,"decayed_at":null,"tle_current":{"epoch":"2026-09-18T22:06:54.510336Z","epoch_age_seconds":161878,"freshness":"FRESH","line1":"1 69429U 26126K   26261.92146424  .00017885  00000+0  55478-3 0  9996","line2":"2 69429  97.2863 123.1968 0002317  61.7818 298.3658 15.33456309 17289","mean_motion":15.33456309,"eccentricity":0.0002317,"inclination_deg":97.2863,"raan_deg":123.1968,"arg_perigee_deg":61.7818,"mean_anomaly_deg":298.3658,"bstar":0.00055478,"rev_number":1728,"period_min":93.90551211329,"perigee_km":463.92385415716,"apogee_km":467.0951999578,"semimajor_km":6843.6465270575,"source":"CELESTRAK","updated_at":"2026-09-20T09:00:44.196014Z"}}}